#timestamp,LO_Frequency,Hit,StdDev 
1606698015.1,286047004.3,P
1606698016.0,286047004.3,P
1606698035.8,286047002.7,N
1606698055.7,286047000.1,N
1606698075.5,286047002.7,N
1606698095.3,286047000.7,N
1606698115.2,286046998.2,N
1606698135.0,286047002.6,N
1606698135.9,286047002.6,N
1606698155.7,286047001.8,N
1606698175.6,286047002.4,N
1606698195.4,286047000.7,N
1606698215.3,286047001.0,N
1606698235.1,286047001.1,N
1606698236.0,286047001.1,N
1606698255.8,286047002.8,N
1606698275.7,286047002.2,N
1606698295.5,286047000.5,N
1606698315.3,286047002.0,N
1606698335.2,286047001.9,N
1606698355.0,286047001.5,N
1606698355.9,286047001.5,N
1606698375.8,286046999.7,N
1606698395.6,286047001.5,N
1606698415.4,286047001.8,N
1606698435.3,286047001.7,N
1606698455.1,286047004.2,Y
1606698475.9,286047000.9,P
1606698495.7,286047000.5,N
1606698515.5,286047001.1,N
1606698535.4,286047000.5,N
1606698555.2,286047001.0,N
1606698575.0,286047000.8,N
1606698575.9,286047000.8,N
1606698595.8,286046998.5,Y
1606698615.6,286046999.4,P
1606698635.5,286046999.0,N
1606698655.3,286046996.9,P
1606698675.1,286046997.0,N
1606698695.9,286046999.4,N
1606698715.7,286046998.3,N
1606698735.5,286046998.9,N
1606698755.4,286046999.3,N
1606698775.2,286046996.5,N
1606698795.1,286046999.6,N
1606698796.0,286046999.6,N
1606698815.8,286046999.3,N
1606698835.6,286046998.2,N
1606698855.5,286046998.5,N
1606698875.3,286047000.9,N
1606698895.1,286046999.3,N
1606698915.9,286047000.1,N
1606698935.7,286047001.4,N
1606698955.6,286047001.3,N
1606698975.4,286047001.3,N
1606698995.2,286047002.1,N
1606699015.1,286047002.2,N
1606699016.0,286047002.2,N
1606699035.8,286047004.4,N
1606699055.6,286047003.7,N
1606699075.5,286047001.4,N
1606699095.3,286047001.8,N
1606699115.2,286046999.7,N
1606699135.9,286047000.4,N
1606699155.7,286046999.8,N
1606699175.6,286046998.6,N
1606699195.4,286046998.9,N
1606699215.3,286046998.5,N
1606699235.1,286047000.9,N
1606699236.0,286047000.9,N
1606699255.8,286047002.4,N
1606699275.7,286047002.6,N
1606699295.5,286046999.7,N
1606699315.3,286046999.9,N
1606699335.2,286047000.3,N
1606699355.0,286047002.8,N
1606699355.9,286047002.8,N
1606699375.8,286046999.7,N
1606699395.6,286047002.0,N
1606699415.4,286047001.8,N
1606699435.3,286047003.2,N
1606699455.1,286047004.1,N
1606699475.8,286047004.4,N
1606699495.7,286047003.6,N
1606699545.6,286047004.4,E
1606699555.5,286046999.7,N
1606699575.3,286047004.1,P
1606699595.1,286047001.5,N
1606699615.9,286047001.4,N
1606699635.7,286046999.8,N
1606699655.6,286046998.3,N
1606699675.4,286046996.6,N
1606699695.2,286046996.6,N
1606699715.1,286046999.4,N
1606699716.0,286046999.4,N
1606699735.8,286046998.8,N
1606699755.6,286046999.4,N
1606699775.5,286046999.2,N
1606699795.3,286046998.1,N
1606699815.2,286047001.0,N
1606699835.9,286046998.3,N
1606699855.7,286046999.1,N
1606699875.6,286047000.4,N
1606699895.4,286047000.7,N
1606699915.3,286047000.9,N
1606699935.1,286047000.1,N
1606699936.0,286047000.1,N
1606699955.8,286047001.6,N
1606699975.7,286047002.2,N
1606699995.5,286047004.1,N
1606700015.3,286047003.9,N
1606700035.2,286047005.7,N
1606700055.0,286047003.8,N
1606700055.9,286047003.8,N
1606700075.8,286047006.0,N
1606700095.6,286047002.9,N
1606700115.4,286047004.2,N
1606700135.3,286047002.4,N
1606700155.1,286047003.3,N
1606700175.9,286047003.2,N
1606700195.7,286047003.6,N
1606700215.5,286047004.0,N
1606700235.4,286047002.7,N
1606700255.2,286047002.1,N
1606700275.0,286047001.5,N
1606700275.9,286047001.5,N
1606700295.8,286047003.5,N
1606700315.6,286047003.2,N
1606700335.5,286047005.3,N
1606700355.3,286047003.5,N
1606700375.1,286047003.2,N
1606700395.9,286047006.5,Y
1606700415.7,286047005.6,P
1606700435.6,286047003.7,N
1606700455.4,286047004.7,P
1606700475.2,286047005.9,Y
1606700495.1,286047001.5,P
1606700496.0,286047001.5,N
1606700515.8,286047000.3,N
1606700535.6,286047000.7,N
1606700555.5,286047002.8,N
1606700575.3,286046999.7,N
1606700595.2,286047004.0,N
1606700615.9,286047004.5,N
1606700635.7,286047003.0,N
1606700655.6,286047005.4,Y
1606700675.4,286047001.4,P
1606700695.2,286047001.4,P
1606700715.1,286047003.6,P
1606700716.0,286047003.6,Y
1606700735.8,286046998.1,P
1606700755.7,286046996.5,N
1606700775.5,286046999.3,N
1606700795.3,286046994.9,N
1606700815.2,286046994.9,N
1606700835.0,286046995.5,N
1606700835.9,286046995.5,N
1606700855.7,286046995.0,N
1606700875.6,286047000.1,N
1606700895.4,286046998.4,N
1606700915.3,286046999.6,N
1606700935.1,286046999.0,N
1606700936.0,286046999.0,N
1606700955.8,286047002.8,N
1606700975.7,286047003.5,N
1606700995.5,286047005.8,N
1606701015.3,286047003.1,N
1606701035.2,286047002.5,N
1606701055.0,286047000.4,N
1606701055.9,286047000.4,N
1606701075.8,286046998.1,N
1606701095.6,286046999.1,N
1606701115.4,286046998.8,N
1606701135.3,286046996.8,N
1606701155.1,286046996.9,N
1606701175.8,286046997.5,N
1606701195.7,286046996.8,N
1606701215.5,286046997.9,N
1606701235.4,286046994.2,N
1606701255.2,286046995.2,N
1606701275.0,286046997.2,N
1606701275.9,286046997.2,N
1606701295.8,286047003.2,N
1606701315.6,286047008.3,N
1606701335.4,286047005.0,N
1606701355.3,286047006.0,N
1606701375.1,286047006.6,N
1606701395.9,286047007.1,N
1606701415.7,286047006.9,N
1606701435.5,286047004.9,N
1606701455.4,286047005.2,N
1606701475.2,286047001.5,N
1606701495.1,286047003.4,N
1606701526.0,286047001.7,E
1606701535.0,286047003.7,N
1606701535.9,286047003.7,P
1606701555.8,286047003.8,P
1606701575.6,286047001.7,Y
1606701595.4,286046999.8,P
